GIA88 WIII-WARR

Flight info

Callsign GIA88
Flight time 0h 57m
Altitude 39000
Route CA2C CA T3 BA BA1C
Aircraft B738/M-V/N

Departure

Time 2026-05-08 17:34
Airport Soekarno-Hatta International Airport (WIII)

Arrival

Time 2026-05-08 18:32
Airport Juanda International Airport (WARR)
Time Latitude Longitude Altitude Speed Heading
2026-05-08 16:53 -6.13124 106.65767 27 ft 0 kts 277°
2026-05-08 17:15 -6.13130 106.65793 41 ft 3 kts 281°
2026-05-08 17:16 -6.13132 106.65806 27 ft 3 kts 289°
2026-05-08 17:16 -6.13142 106.65824 27 ft 3 kts 325°
2026-05-08 17:16 -6.13160 106.65831 27 ft 3 kts
2026-05-08 17:16 -6.13182 106.65826 27 ft 3 kts 13°
2026-05-08 17:17 -6.13191 106.65824 27 ft 0 kts
2026-05-08 17:23 -6.13190 106.65824 27 ft 1 kts
2026-05-08 17:23 -6.13174 106.65826 27 ft 4 kts
2026-05-08 17:23 -6.13128 106.65836 27 ft 9 kts 23°
2026-05-08 17:23 -6.13086 106.65895 27 ft 13 kts 71°
2026-05-08 17:24 -6.13049 106.65990 26 ft 16 kts 68°
2026-05-08 17:24 -6.13010 106.66089 27 ft 14 kts 68°
2026-05-08 17:24 -6.13019 106.66166 30 ft 10 kts 138°
2026-05-08 17:24 -6.13084 106.66197 29 ft 10 kts 157°
2026-05-08 17:25 -6.13148 106.66224 30 ft 10 kts 159°
2026-05-08 17:25 -6.13186 106.66274 26 ft 10 kts 91°
2026-05-08 17:25 -6.13167 106.66338 29 ft 10 kts 67°
2026-05-08 17:25 -6.13137 106.66411 28 ft 13 kts 68°
2026-05-08 17:26 -6.13101 106.66501 26 ft 15 kts 68°
2026-05-08 17:26 -6.13057 106.66610 24 ft 18 kts 68°
2026-05-08 17:26 -6.13008 106.66734 27 ft 20 kts 67°
2026-05-08 17:26 -6.12955 106.66866 23 ft 20 kts 68°
2026-05-08 17:27 -6.12903 106.66997 24 ft 20 kts 68°
2026-05-08 17:27 -6.12853 106.67126 22 ft 19 kts 69°
2026-05-08 17:27 -6.12804 106.67247 24 ft 18 kts 68°
2026-05-08 17:27 -6.12783 106.67346 22 ft 10 kts 109°
2026-05-08 17:28 -6.12835 106.67383 22 ft 9 kts 157°
2026-05-08 17:28 -6.12873 106.67400 24 ft 0 kts 155°
2026-05-08 17:32 -6.12885 106.67405 22 ft 4 kts 157°
2026-05-08 17:32 -6.12931 106.67416 22 ft 10 kts 175°
2026-05-08 17:32 -6.13009 106.67387 21 ft 15 kts 213°
2026-05-08 17:33 -6.13077 106.67294 22 ft 18 kts 248°
2026-05-08 17:33 -6.13129 106.67164 23 ft 22 kts 248°
2026-05-08 17:33 -6.13263 106.66831 27 ft 86 kts 248°
2026-05-08 17:33 -6.13576 106.66047 27 ft 146 kts 248°
2026-05-08 17:34 -6.13987 106.65030 358 ft 166 kts 247°
2026-05-08 17:34 -6.14417 106.63944 956 ft 168 kts 248°
2026-05-08 17:34 -6.14847 106.62829 1476 ft 182 kts 249°
2026-05-08 17:34 -6.15352 106.61524 1830 ft 213 kts 247°
2026-05-08 17:35 -6.15963 106.60058 2255 ft 233 kts 246°
2026-05-08 17:35 -6.16592 106.58531 2957 ft 240 kts 247°
2026-05-08 17:35 -6.17221 106.56976 3867 ft 241 kts 248°
2026-05-08 17:35 -6.17849 106.55409 4787 ft 243 kts 248°
2026-05-08 17:36 -6.18485 106.53816 5658 ft 247 kts 248°
2026-05-08 17:36 -6.19370 106.52335 6477 ft 252 kts 222°
2026-05-08 17:36 -6.20884 106.51486 7302 ft 251 kts 191°
2026-05-08 17:36 -6.22609 106.51487 8137 ft 251 kts 165°
2026-05-08 17:37 -6.24281 106.52041 8966 ft 254 kts 158°
2026-05-08 17:37 -6.25881 106.52816 9788 ft 258 kts 141°
2026-05-08 17:37 -6.26955 106.54217 10534 ft 257 kts 110°
2026-05-08 17:37 -6.27229 106.55995 11284 ft 261 kts 83°
2026-05-08 17:38 -6.26644 106.57718 12017 ft 264 kts 59°
2026-05-08 17:38 -6.25598 106.59249 12785 ft 267 kts 54°
2026-05-08 17:38 -6.24850 106.60267 13299 ft 270 kts 54°
2026-05-08 17:38 -6.23725 106.61794 14013 ft 273 kts 54°
2026-05-08 17:39 -6.22598 106.63345 14678 ft 277 kts 55°
2026-05-08 17:39 -6.21464 106.64923 15344 ft 280 kts 56°
2026-05-08 17:39 -6.20319 106.66524 16016 ft 284 kts 56°
2026-05-08 17:39 -6.19193 106.68165 16676 ft 287 kts 64°
2026-05-08 17:40 -6.18680 106.70082 17291 ft 287 kts 92°
2026-05-08 17:40 -6.19069 106.72097 17514 ft 305 kts 114°
2026-05-08 17:40 -6.20002 106.74080 17750 ft 323 kts 117°
2026-05-08 17:40 -6.21027 106.76131 18250 ft 331 kts 117°
2026-05-08 17:41 -6.22064 106.78203 18833 ft 333 kts 117°
2026-05-08 17:41 -6.23104 106.80299 19432 ft 336 kts 117°
2026-05-08 17:41 -6.24144 106.82420 20006 ft 340 kts 117°
2026-05-08 17:41 -6.25190 106.84565 20572 ft 343 kts 116°
2026-05-08 17:42 -6.26241 106.86728 21140 ft 347 kts 116°
2026-05-08 17:42 -6.27307 106.88922 21721 ft 351 kts 117°
2026-05-08 17:42 -6.28426 106.91122 21874 ft 367 kts 118°
2026-05-08 17:42 -6.29669 106.93470 21991 ft 383 kts 118°
2026-05-08 17:43 -6.30949 106.95878 22102 ft 397 kts 118°
2026-05-08 17:43 -6.32243 106.98328 22420 ft 404 kts 118°
2026-05-08 17:43 -6.33574 107.00865 22881 ft 407 kts 118°
2026-05-08 17:43 -6.34892 107.03383 23376 ft 409 kts 118°
2026-05-08 17:44 -6.36224 107.05926 23765 ft 412 kts 118°
2026-05-08 17:44 -6.37538 107.08433 23845 ft 408 kts 118°
2026-05-08 17:44 -6.38856 107.10950 23878 ft 408 kts 118°
2026-05-08 17:44 -6.40187 107.13492 23905 ft 413 kts 118°
2026-05-08 17:45 -6.41531 107.16057 23903 ft 414 kts 118°
2026-05-08 17:45 -6.42869 107.18614 23900 ft 413 kts 118°
2026-05-08 17:45 -6.44203 107.21162 23897 ft 412 kts 118°
2026-05-08 17:45 -6.45537 107.23713 23902 ft 411 kts 118°
2026-05-08 17:46 -6.46881 107.26281 23997 ft 418 kts 118°
2026-05-08 17:46 -6.48237 107.28873 24386 ft 419 kts 118°
2026-05-08 17:46 -6.49594 107.31467 24837 ft 419 kts 118°
2026-05-08 17:46 -6.50947 107.34056 25256 ft 420 kts 118°
2026-05-08 17:47 -6.52311 107.36665 25608 ft 423 kts 118°
2026-05-08 17:47 -6.53685 107.39292 25951 ft 426 kts 118°
2026-05-08 17:47 -6.55089 107.41978 26258 ft 430 kts 118°
2026-05-08 17:47 -6.56006 107.43742 26483 ft 431 kts 116°
2026-05-08 17:48 -6.57142 107.47694 26925 ft 436 kts 96°
2026-05-08 17:48 -6.57456 107.50686 27292 ft 437 kts 96°
2026-05-08 17:48 -6.57774 107.53739 27605 ft 440 kts 96°
2026-05-08 17:48 -6.58106 107.56806 27890 ft 443 kts 97°
2026-05-08 17:49 -6.58455 107.59894 28213 ft 445 kts 97°
2026-05-08 17:49 -6.58816 107.62990 28537 ft 447 kts 97°
2026-05-08 17:49 -6.59185 107.66103 28845 ft 449 kts 97°
2026-05-08 17:49 -6.59559 107.69231 29128 ft 452 kts 97°
2026-05-08 17:50 -6.59935 107.72373 29406 ft 454 kts 97°
2026-05-08 17:50 -6.60313 107.75528 29690 ft 456 kts 97°
2026-05-08 17:50 -6.60691 107.78703 29970 ft 458 kts 97°
2026-05-08 17:50 -6.61070 107.81884 30217 ft 459 kts 97°
2026-05-08 17:51 -6.61450 107.85081 30475 ft 461 kts 97°
2026-05-08 17:51 -6.61830 107.88280 30723 ft 462 kts 97°
2026-05-08 17:51 -6.62212 107.91500 30955 ft 463 kts 97°
2026-05-08 17:51 -6.62595 107.94721 31169 ft 465 kts 96°
2026-05-08 17:52 -6.62977 107.97953 31399 ft 467 kts 96°
2026-05-08 17:52 -6.63361 108.01199 31622 ft 468 kts 96°
2026-05-08 17:52 -6.64126 108.07690 32290 ft 464 kts 96°
2026-05-08 17:53 -6.64506 108.10905 32690 ft 462 kts 96°
2026-05-08 17:53 -6.64884 108.14112 32978 ft 462 kts 96°
2026-05-08 17:53 -6.65261 108.17315 33262 ft 462 kts 96°
2026-05-08 17:53 -6.65638 108.20526 33598 ft 461 kts 96°
2026-05-08 17:54 -6.66021 108.23774 33940 ft 460 kts 96°
2026-05-08 17:54 -6.66396 108.26966 34228 ft 459 kts 96°
2026-05-08 17:54 -6.66766 108.30112 34495 ft 459 kts 96°
2026-05-08 17:54 -6.67141 108.33302 34747 ft 459 kts 96°
2026-05-08 17:55 -6.67515 108.36490 35025 ft 458 kts 96°
2026-05-08 17:55 -6.67888 108.39674 35309 ft 458 kts 96°
2026-05-08 17:55 -6.68265 108.42889 35580 ft 457 kts 96°
2026-05-08 17:55 -6.68633 108.46027 35828 ft 457 kts 96°
2026-05-08 17:56 -6.69009 108.49237 36112 ft 456 kts 96°
2026-05-08 17:56 -6.69375 108.52359 36400 ft 455 kts 95°
2026-05-08 17:56 -6.69748 108.55550 36676 ft 454 kts 95°
2026-05-08 17:56 -6.70151 108.58704 36907 ft 454 kts 97°
2026-05-08 17:57 -6.70614 108.61822 36897 ft 459 kts 97°
2026-05-08 17:57 -6.71630 108.68166 36905 ft 458 kts 98°
2026-05-08 17:58 -6.72632 108.74448 36893 ft 451 kts 97°
2026-05-08 17:58 -6.73600 108.80676 36910 ft 450 kts 97°
2026-05-08 17:59 -6.74558 108.86908 36895 ft 450 kts 97°
2026-05-08 17:59 -6.81640 109.33259 36897 ft 447 kts 97°
2026-05-08 18:00 -6.89161 109.82742 36914 ft 447 kts 97°
2026-05-08 18:00 -6.95769 110.26493 36477 ft 450 kts 98°
2026-05-08 18:01 -6.96235 110.29583 36146 ft 444 kts 98°
2026-05-08 18:01 -6.96696 110.32644 35730 ft 440 kts 98°
2026-05-08 18:01 -6.97151 110.35669 35332 ft 436 kts 98°
2026-05-08 18:01 -6.97562 110.38687 34912 ft 434 kts 94°
2026-05-08 18:02 -6.97713 110.41717 34459 ft 432 kts 91°
2026-05-08 18:02 -6.97750 110.43752 34173 ft 431 kts 91°
2026-05-08 18:02 -6.97775 110.47738 33584 ft 428 kts 91°
2026-05-08 18:02 -6.97790 110.50726 33154 ft 425 kts 91°
2026-05-08 18:03 -6.97815 110.53693 32739 ft 422 kts 91°
2026-05-08 18:03 -6.97851 110.56640 32333 ft 419 kts 91°
2026-05-08 18:03 -6.97894 110.59564 31936 ft 417 kts 91°
2026-05-08 18:03 -6.97943 110.62472 31541 ft 414 kts 91°
2026-05-08 18:04 -6.97994 110.65358 31152 ft 411 kts 91°
2026-05-08 18:04 -6.98045 110.68226 30769 ft 409 kts 91°
2026-05-08 18:04 -6.98097 110.71087 30365 ft 407 kts 91°
2026-05-08 18:04 -6.98147 110.73924 29981 ft 405 kts 91°
2026-05-08 18:05 -6.98198 110.76756 29524 ft 403 kts 91°
2026-05-08 18:05 -6.98247 110.79568 29102 ft 400 kts 91°
2026-05-08 18:05 -6.98296 110.82356 28683 ft 397 kts 91°
2026-05-08 18:05 -6.98344 110.85122 28279 ft 394 kts 91°
2026-05-08 18:06 -6.98392 110.87869 27885 ft 391 kts 91°
2026-05-08 18:06 -6.98439 110.90588 27491 ft 388 kts 92°
2026-05-08 18:06 -6.98486 110.93300 27105 ft 385 kts 91°
2026-05-08 18:06 -6.98532 110.95975 26721 ft 383 kts 91°
2026-05-08 18:07 -6.98578 110.98649 26335 ft 381 kts 91°
2026-05-08 18:07 -6.98623 111.01303 25951 ft 379 kts 92°
2026-05-08 18:07 -6.98668 111.03945 25570 ft 377 kts 92°
2026-05-08 18:07 -6.98713 111.06584 25174 ft 376 kts 92°
2026-05-08 18:08 -6.98757 111.09204 24786 ft 375 kts 92°
2026-05-08 18:08 -6.98802 111.11830 24399 ft 373 kts 92°
2026-05-08 18:08 -6.98845 111.14399 24019 ft 373 kts 92°
2026-05-08 18:08 -6.98889 111.17007 23634 ft 372 kts 92°
2026-05-08 18:09 -6.98932 111.19606 23212 ft 371 kts 92°
2026-05-08 18:09 -6.98976 111.22196 22797 ft 368 kts 92°
2026-05-08 18:09 -6.99018 111.24761 22413 ft 366 kts 92°
2026-05-08 18:09 -6.99060 111.27309 22029 ft 363 kts 92°
2026-05-08 18:10 -6.99102 111.29845 21656 ft 360 kts 92°
2026-05-08 18:10 -6.99143 111.32352 21288 ft 358 kts 92°
2026-05-08 18:10 -6.99185 111.34845 20924 ft 355 kts 92°
2026-05-08 18:10 -6.99226 111.37356 20559 ft 353 kts 92°
2026-05-08 18:11 -6.99265 111.39787 20199 ft 350 kts 92°
2026-05-08 18:11 -6.99364 111.42257 19843 ft 347 kts 100°
2026-05-08 18:11 -6.99906 111.44596 19582 ft 340 kts 107°
2026-05-08 18:11 -7.00580 111.46908 19222 ft 338 kts 108°
2026-05-08 18:12 -7.01259 111.49164 18895 ft 336 kts 108°
2026-05-08 18:12 -7.01708 111.50661 18663 ft 336 kts 108°
2026-05-08 18:12 -7.02381 111.52937 18299 ft 335 kts 108°
2026-05-08 18:12 -7.03035 111.55182 17913 ft 334 kts 108°
2026-05-08 18:13 -7.03669 111.57382 17546 ft 332 kts 107°
2026-05-08 18:13 -7.04309 111.59625 17184 ft 330 kts 107°
2026-05-08 18:13 -7.04938 111.61839 16826 ft 328 kts 107°
2026-05-08 18:13 -7.05564 111.64046 16475 ft 326 kts 107°
2026-05-08 18:14 -7.06184 111.66237 16128 ft 324 kts 107°
2026-05-08 18:14 -7.06800 111.68418 15787 ft 323 kts 107°
2026-05-08 18:14 -7.07412 111.70584 15448 ft 322 kts 107°
2026-05-08 18:14 -7.08023 111.72748 15108 ft 320 kts 107°
2026-05-08 18:15 -7.08629 111.74896 14771 ft 319 kts 107°
2026-05-08 18:15 -7.09237 111.77047 14414 ft 318 kts 107°
2026-05-08 18:15 -7.09849 111.79218 14078 ft 317 kts 106°
2026-05-08 18:15 -7.10453 111.81358 13718 ft 317 kts 106°
2026-05-08 18:16 -7.11053 111.83485 13346 ft 316 kts 106°
2026-05-08 18:16 -7.11653 111.85615 12993 ft 314 kts 106°
2026-05-08 18:16 -7.12248 111.87723 12646 ft 313 kts 106°
2026-05-08 18:16 -7.12856 111.89882 12297 ft 311 kts 106°
2026-05-08 18:17 -7.13443 111.91965 11965 ft 309 kts 106°
2026-05-08 18:17 -7.14027 111.94037 11652 ft 306 kts 106°
2026-05-08 18:17 -7.14600 111.96071 11521 ft 297 kts 106°
2026-05-08 18:17 -7.15159 111.98054 11381 ft 289 kts 106°
2026-05-08 18:18 -7.15699 111.99959 11223 ft 283 kts 107°
2026-05-08 18:18 -7.16389 112.01810 10920 ft 282 kts 113°
2026-05-08 18:18 -7.17173 112.03614 10642 ft 281 kts 114°
2026-05-08 18:18 -7.17973 112.05414 10363 ft 280 kts 114°
2026-05-08 18:19 -7.18761 112.07197 10118 ft 277 kts 114°
2026-05-08 18:19 -7.19545 112.08988 9881 ft 274 kts 114°
2026-05-08 18:19 -7.20306 112.10741 9609 ft 273 kts 114°
2026-05-08 18:19 -7.21069 112.12508 9319 ft 271 kts 113°
2026-05-08 18:20 -7.21808 112.14225 9046 ft 270 kts 113°
2026-05-08 18:20 -7.22550 112.15956 8769 ft 268 kts 113°
2026-05-08 18:20 -7.23288 112.17678 8496 ft 267 kts 113°
2026-05-08 18:20 -7.24029 112.19410 8216 ft 265 kts 113°
2026-05-08 18:21 -7.24757 112.21113 7951 ft 264 kts 113°
2026-05-08 18:21 -7.25482 112.22811 7691 ft 263 kts 113°
2026-05-08 18:21 -7.26203 112.24498 7420 ft 262 kts 113°
2026-05-08 18:21 -7.26923 112.26182 7152 ft 261 kts 113°
2026-05-08 18:22 -7.27640 112.27863 6883 ft 260 kts 113°
2026-05-08 18:22 -7.28355 112.29537 6618 ft 260 kts 113°
2026-05-08 18:22 -7.29068 112.31205 6356 ft 259 kts 113°
2026-05-08 18:22 -7.29758 112.32877 6074 ft 258 kts 108°
2026-05-08 18:23 -7.30191 112.34624 5805 ft 257 kts 101°
2026-05-08 18:23 -7.30522 112.36389 5539 ft 256 kts 101°
2026-05-08 18:23 -7.30846 112.38152 5272 ft 255 kts 101°
2026-05-08 18:23 -7.31172 112.39892 4998 ft 250 kts 101°
2026-05-08 18:24 -7.31504 112.41615 4728 ft 244 kts 102°
2026-05-08 18:24 -7.31827 112.43266 4458 ft 238 kts 102°
2026-05-08 18:24 -7.32143 112.44866 4339 ft 226 kts 102°
2026-05-08 18:24 -7.32449 112.46400 4219 ft 215 kts 102°
2026-05-08 18:25 -7.32737 112.47837 4116 ft 203 kts 102°
2026-05-08 18:25 -7.33020 112.49245 4065 ft 201 kts 102°
2026-05-08 18:25 -7.33295 112.50613 3989 ft 199 kts 102°
2026-05-08 18:25 -7.33574 112.51997 3776 ft 204 kts 102°
2026-05-08 18:26 -7.33858 112.53404 3573 ft 205 kts 102°
2026-05-08 18:26 -7.34112 112.54767 3404 ft 202 kts 100°
2026-05-08 18:26 -7.34264 112.55691 3307 ft 201 kts 99°
2026-05-08 18:26 -7.34492 112.57111 3139 ft 198 kts 99°
2026-05-08 18:27 -7.34721 112.58532 2980 ft 197 kts 99°
2026-05-08 18:27 -7.34863 112.59412 2884 ft 196 kts 99°
2026-05-08 18:27 -7.35150 112.61191 2656 ft 179 kts 99°
2026-05-08 18:27 -7.35345 112.62395 2518 ft 163 kts 100°
2026-05-08 18:28 -7.35520 112.63478 2384 ft 159 kts 99°
2026-05-08 18:28 -7.35726 112.64746 2503 ft 193 kts 100°
2026-05-08 18:28 -7.35939 112.66068 2248 ft 184 kts 99°
2026-05-08 18:28 -7.36137 112.67290 2014 ft 166 kts 99°
2026-05-08 18:29 -7.36314 112.68383 1800 ft 151 kts 99°
2026-05-08 18:29 -7.36480 112.69413 1624 ft 147 kts 99°
2026-05-08 18:29 -7.36647 112.70441 1431 ft 148 kts 99°
2026-05-08 18:29 -7.36812 112.71464 1235 ft 149 kts 99°
2026-05-08 18:30 -7.36979 112.72493 1037 ft 149 kts 99°
2026-05-08 18:30 -7.37152 112.73549 840 ft 150 kts 99°
2026-05-08 18:30 -7.37319 112.74585 555 ft 149 kts 98°
2026-05-08 18:30 -7.37476 112.75602 290 ft 143 kts 98°
2026-05-08 18:31 -7.37632 112.76567 116 ft 142 kts 98°
2026-05-08 18:31 -7.37798 112.77573 45 ft 141 kts 98°
2026-05-08 18:31 -7.37957 112.78552 17 ft 135 kts 98°
2026-05-08 18:31 -7.38096 112.79394 16 ft 95 kts 99°
2026-05-08 18:32 -7.38182 112.79857 14 ft 40 kts 102°
2026-05-08 18:32 -7.38233 112.80013 12 ft 16 kts 135°
2026-05-08 18:32 -7.38271 112.80037 14 ft 0 kts 154°
2026-05-08 18:34 -7.38272 112.80037 15 ft 0 kts 160°
2026-05-08 18:34 -7.38277 112.80039 14 ft 2 kts 160°
2026-05-08 18:34 -7.38313 112.80050 13 ft 7 kts 172°
2026-05-08 18:35 -7.38375 112.80048 14 ft 11 kts 200°
2026-05-08 18:35 -7.38384 112.79971 14 ft 14 kts 283°
2026-05-08 18:35 -7.38370 112.79903 14 ft 17 kts 279°
2026-05-08 18:35 -7.38342 112.79729 14 ft 19 kts 279°
2026-05-08 18:36 -7.38321 112.79600 14 ft 18 kts 279°
2026-05-08 18:36 -7.38301 112.79473 14 ft 18 kts 279°
2026-05-08 18:36 -7.38281 112.79348 16 ft 17 kts 279°
2026-05-08 18:36 -7.38262 112.79232 14 ft 17 kts 279°
2026-05-08 18:37 -7.38243 112.79119 14 ft 16 kts 279°
2026-05-08 18:37 -7.38225 112.79011 15 ft 15 kts 279°
2026-05-08 18:37 -7.38209 112.78908 16 ft 15 kts 279°
2026-05-08 18:37 -7.38193 112.78808 14 ft 14 kts 279°
2026-05-08 18:38 -7.38178 112.78713 14 ft 13 kts 279°
2026-05-08 18:38 -7.38165 112.78623 14 ft 13 kts 278°
2026-05-08 18:38 -7.38151 112.78534 16 ft 13 kts 279°
2026-05-08 18:38 -7.38141 112.78477 14 ft 12 kts 279°
2026-05-08 18:39 -7.38122 112.78365 15 ft 12 kts 279°
2026-05-08 18:39 -7.38113 112.78310 14 ft 12 kts 279°
2026-05-08 18:39 -7.38100 112.78222 14 ft 11 kts 278°
2026-05-08 18:39 -7.38088 112.78145 14 ft 11 kts 278°
2026-05-08 18:40 -7.38077 112.78068 14 ft 11 kts 278°
2026-05-08 18:40 -7.38078 112.77995 14 ft 10 kts 246°
2026-05-08 18:40 -7.38120 112.77961 14 ft 7 kts 194°
2026-05-08 18:40 -7.38168 112.77952 14 ft 7 kts 191°
2026-05-08 18:41 -7.38171 112.77952 14 ft 0 kts 191°